JTC319 VABB-LOWS

Flight info

Callsign JTC319
Flight time N/A
Altitude 38000
Route RAXE2A SAKUN V1 BIMOT V2 SUGID N571 MENSA DCT MITIX M557 TUMAK L602 GADSI M860 ODALI UL852 NEGEM T746 ARGES DCT BUDOP DCT TORNO DCT NATEX DCT NUBRA NUBR3R
Aircraft A319/M-SDE3FGHIRWY/LB1

Departure

Time 2026-04-28 23:01
Airport Chhatrapati Shivaji Maharaj International Airport (VABB)

Arrival

Time N/A
Airport Salzburg Airport (LOWS)
Time Latitude Longitude Altitude Speed Heading
2026-04-28 22:42 19.08728 72.86414 49 ft 0 kts 58°
2026-04-28 22:54 19.08730 72.86418 49 ft 2 kts 53°
2026-04-28 22:54 19.08737 72.86419 49 ft 2 kts 22°
2026-04-28 22:54 19.08744 72.86460 49 ft 9 kts 88°
2026-04-28 22:55 19.08745 72.86547 49 ft 13 kts 95°
2026-04-28 22:55 19.08737 72.86647 50 ft 14 kts 91°
2026-04-28 22:55 19.08698 72.86744 49 ft 15 kts 84°
2026-04-28 22:55 19.08700 72.86854 49 ft 16 kts 89°
2026-04-28 22:56 19.08702 72.86974 50 ft 16 kts 89°
2026-04-28 22:56 19.08703 72.87097 50 ft 17 kts 88°
2026-04-28 22:56 19.08789 72.87118 50 ft 17 kts 320°
2026-04-28 22:56 19.08875 72.87029 51 ft 18 kts 314°
2026-04-28 22:57 19.08963 72.86933 51 ft 19 kts 314°
2026-04-28 22:57 19.09044 72.86948 50 ft 16 kts 83°
2026-04-28 22:57 19.09046 72.87071 50 ft 17 kts 89°
2026-04-28 22:57 19.09048 72.87202 50 ft 18 kts 89°
2026-04-28 22:58 19.09050 72.87341 50 ft 19 kts 89°
2026-04-28 22:58 19.09052 72.87488 49 ft 21 kts 89°
2026-04-28 22:58 19.09054 72.87642 49 ft 21 kts 89°
2026-04-28 22:58 19.09057 72.87803 49 ft 22 kts 89°
2026-04-28 22:59 19.09059 72.87969 49 ft 23 kts 90°
2026-04-28 22:59 19.09024 72.88051 48 ft 11 kts 165°
2026-04-28 22:59 19.08939 72.88053 47 ft 14 kts 179°
2026-04-28 22:59 19.08889 72.88024 47 ft 8 kts 257°
2026-04-28 23:00 19.08888 72.87955 47 ft 13 kts 269°
2026-04-28 23:00 19.08884 72.87663 48 ft 77 kts 269°
2026-04-28 23:00 19.08871 72.86839 52 ft 141 kts 269°
2026-04-28 23:00 19.08853 72.85667 264 ft 169 kts 269°
2026-04-28 23:01 19.08846 72.84426 883 ft 169 kts 269°
2026-04-28 23:01 19.08833 72.83169 1503 ft 177 kts 269°
2026-04-28 23:01 19.08814 72.81786 1882 ft 199 kts 270°
2026-04-28 23:01 19.08794 72.80244 2270 ft 219 kts 271°
2026-04-28 23:02 19.08770 72.78559 2751 ft 237 kts 271°
2026-04-28 23:02 19.08741 72.76739 3292 ft 256 kts 271°
2026-04-28 23:02 19.08699 72.74826 4099 ft 264 kts 270°
2026-04-28 23:02 19.08725 72.72878 4960 ft 267 kts 276°
2026-04-28 23:03 19.08934 72.70920 5862 ft 269 kts 279°
2026-04-28 23:03 19.09206 72.68956 6742 ft 271 kts 279°
2026-04-28 23:03 19.09485 72.66969 7583 ft 275 kts 278°
2026-04-28 23:03 19.09752 72.64950 8428 ft 280 kts 277°
2026-04-28 23:04 19.10006 72.62897 9281 ft 284 kts 276°
2026-04-28 23:04 19.10488 72.58638 10495 ft 309 kts 275°
2026-04-28 23:04 19.10737 72.56297 10858 ft 328 kts 275°
2026-04-28 23:05 19.10994 72.53868 11506 ft 336 kts 275°
2026-04-28 23:05 19.11255 72.51387 12226 ft 342 kts 275°
2026-04-28 23:05 19.11520 72.48871 12956 ft 347 kts 276°
2026-04-28 23:05 19.11791 72.46316 13661 ft 352 kts 276°
2026-04-28 23:06 19.12068 72.43725 14294 ft 357 kts 276°
2026-04-28 23:06 19.12349 72.41108 14957 ft 360 kts 276°
2026-04-28 23:06 19.12633 72.38465 15624 ft 363 kts 276°
2026-04-28 23:06 19.12919 72.35795 16278 ft 367 kts 277°
2026-04-28 23:07 19.13208 72.33101 16932 ft 371 kts 277°
2026-04-28 23:07 19.13499 72.30378 17598 ft 374 kts 277°
2026-04-28 23:07 19.13792 72.27634 18233 ft 378 kts 277°
2026-04-28 23:07 19.14086 72.24868 18810 ft 380 kts 277°
2026-04-28 23:08 19.14380 72.22075 19396 ft 383 kts 277°
2026-04-28 23:08 19.14673 72.19265 20007 ft 386 kts 277°
2026-04-28 23:08 19.14964 72.16476 20616 ft 388 kts 277°
2026-04-28 23:08 19.15262 72.13636 21232 ft 390 kts 277°
2026-04-28 23:09 19.15673 72.10799 21836 ft 391 kts 284°
2026-04-28 23:09 19.16549 72.08074 22440 ft 393 kts 295°
2026-04-28 23:09 19.17815 72.05503 23046 ft 395 kts 298°
2026-04-28 23:09 19.19116 72.02939 23584 ft 397 kts 298°
2026-04-28 23:10 19.20419 72.00357 24065 ft 399 kts 298°
2026-04-28 23:10 19.21283 71.98640 24395 ft 400 kts 298°
2026-04-28 23:10 19.23032 71.95150 25021 ft 403 kts 298°
2026-04-28 23:10 19.24347 71.92530 25491 ft 404 kts 298°
2026-04-28 23:11 19.25222 71.90787 25799 ft 405 kts 297°
2026-04-28 23:11 19.26548 71.88146 26254 ft 407 kts 297°
2026-04-28 23:11 19.27881 71.85494 26713 ft 409 kts 297°
2026-04-28 23:11 19.29220 71.82826 27165 ft 411 kts 297°
2026-04-28 23:12 19.30564 71.80150 27640 ft 413 kts 297°
2026-04-28 23:12 19.31914 71.77463 28102 ft 414 kts 297°
2026-04-28 23:12 19.33270 71.74764 28559 ft 416 kts 297°
2026-04-28 23:12 19.34629 71.72050 29010 ft 418 kts 297°
2026-04-28 23:13 19.35995 71.69327 29443 ft 420 kts 297°
2026-04-28 23:13 19.37367 71.66592 29870 ft 422 kts 296°
2026-04-28 23:13 19.38743 71.63841 30213 ft 424 kts 296°
2026-04-28 23:13 19.40120 71.61080 30546 ft 426 kts 297°
2026-04-28 23:14 19.41500 71.58314 30873 ft 428 kts 297°
2026-04-28 23:14 19.42892 71.55527 31050 ft 430 kts 297°
2026-04-28 23:14 19.44300 71.52712 31303 ft 433 kts 297°
2026-04-28 23:14 19.45712 71.49891 31666 ft 434 kts 297°
2026-04-28 23:15 19.47129 71.47063 32043 ft 434 kts 297°
2026-04-28 23:15 19.48541 71.44242 32510 ft 433 kts 297°
2026-04-28 23:15 19.49928 71.41468 32980 ft 431 kts 297°
2026-04-28 23:15 19.51325 71.38664 33444 ft 429 kts 297°
2026-04-28 23:16 19.52711 71.35876 33881 ft 428 kts 297°
2026-04-28 23:16 19.54100 71.33082 34266 ft 428 kts 297°
2026-04-28 23:16 19.55484 71.30297 34649 ft 427 kts 297°
2026-04-28 23:16 19.56866 71.27517 35017 ft 426 kts 298°
2026-04-28 23:17 19.58248 71.24737 35384 ft 426 kts 298°
2026-04-28 23:17 19.59627 71.21962 35737 ft 425 kts 298°
2026-04-28 23:17 19.60907 71.19140 36079 ft 425 kts 292°
2026-04-28 23:17 19.61864 71.16173 36411 ft 425 kts 290°
2026-04-28 23:18 19.62793 71.13193 36733 ft 425 kts 290°
2026-04-28 23:18 19.63719 71.10220 37049 ft 425 kts 290°
2026-04-28 23:18 19.64647 71.07245 37361 ft 425 kts 290°
2026-04-28 23:18 19.65575 71.04273 37667 ft 424 kts 291°
2026-04-28 23:19 19.66507 71.01300 37776 ft 424 kts 291°
2026-04-28 23:19 19.67436 70.98332 37792 ft 423 kts 291°
2026-04-28 23:19 19.69285 70.92413 37791 ft 422 kts 291°
2026-04-28 23:20 19.71125 70.86492 37787 ft 423 kts 290°
2026-04-28 23:20 19.72970 70.80563 37791 ft 423 kts 290°
2026-04-28 23:21 19.74813 70.74625 37795 ft 423 kts 290°
2026-04-28 23:21 19.76651 70.68684 37794 ft 424 kts 290°
2026-04-28 23:22 19.78490 70.62747 37791 ft 424 kts 290°
2026-04-28 23:22 19.80319 70.56843 37792 ft 424 kts 290°
2026-04-28 23:23 19.82156 70.50896 37781 ft 424 kts 290°
2026-04-28 23:23 19.83995 70.44943 37781 ft 424 kts 290°
2026-04-28 23:24 19.85771 70.38964 37786 ft 426 kts 285°
2026-04-28 23:24 19.86154 70.35840 37716 ft 432 kts 273°
2026-04-28 23:24 19.85939 70.32632 37680 ft 438 kts 263°
2026-04-28 23:25 19.84193 70.26420 37673 ft 441 kts 255°
2026-04-28 23:25 19.82243 70.20212 37579 ft 438 kts 253°
2026-04-28 23:26 19.81295 70.17155 37811 ft 435 kts 253°
2026-04-28 23:26 19.80350 70.14113 37839 ft 432 kts 253°
2026-04-28 23:26 19.78434 70.08031 37649 ft 438 kts 254°
2026-04-28 23:27 19.76497 70.01920 37815 ft 436 kts 254°
2026-04-28 23:27 19.74557 69.95814 37816 ft 436 kts 254°
2026-04-28 23:28 19.72611 69.89715 37813 ft 436 kts 254°
2026-04-28 23:28 19.70656 69.83622 37818 ft 435 kts 254°
2026-04-28 23:29 19.68710 69.77549 37815 ft 437 kts 254°
2026-04-28 23:29 19.66773 69.71440 37815 ft 437 kts 254°
2026-04-28 23:30 19.64814 69.65306 37823 ft 436 kts 254°
2026-04-28 23:30 19.62862 69.59217 37827 ft 436 kts 254°
2026-04-28 23:31 19.60933 69.53180 37826 ft 435 kts 254°
2026-04-28 23:31 19.58986 69.47107 37824 ft 435 kts 254°
2026-04-28 23:32 19.57048 69.41035 37815 ft 434 kts 257°
2026-04-28 23:32 19.56464 69.37918 37815 ft 430 kts 268°
2026-04-28 23:32 19.56449 69.34770 37814 ft 426 kts 278°
2026-04-28 23:33 19.58062 69.28797 37818 ft 422 kts 298°
2026-04-28 23:33 19.60734 69.23255 37812 ft 422 kts 298°
2026-04-28 23:34 19.63401 69.17703 37800 ft 422 kts 297°
2026-04-28 23:34 19.66066 69.12149 37801 ft 423 kts 297°
2026-04-28 23:35 19.68541 69.07011 37802 ft 423 kts 298°
2026-04-28 23:35 19.71210 69.01445 37804 ft 423 kts 297°
2026-04-28 23:36 19.73872 68.95871 37806 ft 424 kts 297°
2026-04-28 23:36 19.76540 68.90291 37810 ft 424 kts 297°
2026-04-28 23:37 19.79202 68.84717 37807 ft 424 kts 297°
2026-04-28 23:37 19.81866 68.79135 37808 ft 424 kts 297°
2026-04-28 23:38 19.84531 68.73557 37807 ft 424 kts 297°
2026-04-28 23:38 19.87191 68.67974 37806 ft 424 kts 297°
2026-04-28 23:39 19.89848 68.62385 37807 ft 423 kts 297°
2026-04-28 23:39 19.92486 68.56843 37802 ft 423 kts 297°
2026-04-28 23:40 19.95140 68.51257 37797 ft 423 kts 297°
2026-04-28 23:40 19.97792 68.45668 37796 ft 424 kts 297°
2026-04-28 23:41 20.00446 68.40075 37792 ft 424 kts 298°
2026-04-28 23:41 20.03103 68.34479 37793 ft 424 kts 297°
2026-04-28 23:42 20.05743 68.28874 37797 ft 424 kts 297°
2026-04-28 23:42 20.08390 68.23267 37807 ft 424 kts 297°
2026-04-28 23:43 20.11041 68.17662 37801 ft 424 kts 298°
2026-04-28 23:43 20.13694 68.12047 37804 ft 425 kts 298°
2026-04-28 23:44 20.16340 68.06434 37804 ft 424 kts 298°
2026-04-28 23:44 20.18986 68.00822 37804 ft 424 kts 298°
2026-04-28 23:45 20.21629 67.95212 37799 ft 424 kts 298°
2026-04-28 23:45 20.24266 67.89598 37797 ft 424 kts 297°
2026-04-28 23:46 20.26886 67.84017 37797 ft 424 kts 298°
2026-04-28 23:46 20.29522 67.78394 37799 ft 424 kts 297°
2026-04-28 23:47 20.32150 67.72767 37806 ft 424 kts 298°
2026-04-28 23:47 20.34774 67.67142 37805 ft 423 kts 298°
2026-04-28 23:48 20.37398 67.61532 37804 ft 423 kts 298°
2026-04-28 23:48 20.40024 67.55929 37801 ft 422 kts 298°
2026-04-28 23:49 20.42643 67.50321 37790 ft 423 kts 298°
2026-04-28 23:49 20.45258 67.44709 37791 ft 423 kts 298°
2026-04-28 23:50 20.47872 67.39090 37794 ft 423 kts 297°
2026-04-28 23:50 20.50486 67.33470 37796 ft 423 kts 298°
2026-04-28 23:51 20.53102 67.27850 37789 ft 423 kts 297°
2026-04-28 23:51 20.55686 67.22265 37790 ft 423 kts 297°
2026-04-28 23:52 20.58290 67.16638 37787 ft 423 kts 297°
2026-04-28 23:52 20.60900 67.11014 37786 ft 423 kts 297°
2026-04-28 23:53 20.63514 67.05390 37784 ft 423 kts 297°
2026-04-28 23:53 20.66117 66.99763 37782 ft 423 kts 297°
2026-04-28 23:54 20.68714 66.94131 37786 ft 423 kts 297°
2026-04-28 23:54 20.71313 66.88501 37777 ft 422 kts 297°
2026-04-28 23:55 20.73904 66.82868 37772 ft 422 kts 297°
2026-04-28 23:55 20.76488 66.77229 37773 ft 422 kts 297°
2026-04-28 23:56 20.79076 66.71593 37776 ft 423 kts 297°
2026-04-28 23:56 20.81665 66.65958 37778 ft 422 kts 297°
2026-04-28 23:57 20.84257 66.60324 37776 ft 422 kts 297°
2026-04-28 23:57 20.86850 66.54690 37774 ft 422 kts 297°
2026-04-28 23:58 20.89414 66.49085 37774 ft 422 kts 297°
2026-04-28 23:58 20.91990 66.43440 37775 ft 423 kts 297°
2026-04-28 23:59 20.94570 66.37789 37776 ft 423 kts 297°
2026-04-28 23:59 20.97150 66.32136 37779 ft 423 kts 297°
2026-04-29 00:00 20.99732 66.26476 37779 ft 423 kts 297°
2026-04-29 00:00 21.02310 66.20816 37785 ft 423 kts 297°
2026-04-29 00:01 21.04890 66.15160 37785 ft 423 kts 297°
2026-04-29 00:01 21.07461 66.09509 37780 ft 422 kts 297°
2026-04-29 00:02 21.09591 66.04814 37777 ft 422 kts 297°
2026-04-29 00:02 21.12155 65.99161 37778 ft 422 kts 297°
2026-04-29 00:03 21.14777 65.93545 37779 ft 421 kts 298°
2026-04-29 00:03 21.17442 65.87954 37772 ft 421 kts 298°
2026-04-29 00:04 21.20093 65.82354 37767 ft 421 kts 298°
2026-04-29 00:04 21.22732 65.76746 37769 ft 422 kts 298°
2026-04-29 00:05 21.25367 65.71132 37780 ft 422 kts 297°
2026-04-29 00:05 21.27999 65.65512 37783 ft 421 kts 297°
2026-04-29 00:06 21.30623 65.59901 37768 ft 421 kts 297°
2026-04-29 00:06 21.33253 65.54292 37769 ft 421 kts 298°
2026-04-29 00:07 21.35881 65.48685 37774 ft 421 kts 297°
2026-04-29 00:07 21.38506 65.43074 37774 ft 421 kts 297°
2026-04-29 00:08 21.41123 65.37457 37780 ft 421 kts 297°
2026-04-29 00:08 21.43724 65.31875 37781 ft 421 kts 297°
2026-04-29 00:09 21.46338 65.26256 37767 ft 421 kts 297°
2026-04-29 00:09 21.48954 65.20633 37780 ft 421 kts 297°
2026-04-29 00:10 21.51568 65.15015 37779 ft 420 kts 297°
2026-04-29 00:10 21.54175 65.09404 37776 ft 420 kts 297°
2026-04-29 00:11 21.56772 65.03790 37769 ft 419 kts 297°
2026-04-29 00:12 21.60667 64.95374 37761 ft 419 kts 297°
2026-04-29 00:12 21.63259 64.89762 37759 ft 419 kts 297°
2026-04-29 00:13 21.65855 64.84154 37763 ft 419 kts 297°
2026-04-29 00:13 21.68459 64.78539 37763 ft 419 kts 297°
2026-04-29 00:14 21.71046 64.72921 37767 ft 419 kts 297°
2026-04-29 00:14 21.73622 64.67302 37768 ft 419 kts 297°
2026-04-29 00:15 21.76201 64.61692 37763 ft 418 kts 297°
2026-04-29 00:15 21.78780 64.56091 37764 ft 418 kts 297°
2026-04-29 00:16 21.81356 64.50486 37761 ft 418 kts 297°
2026-04-29 00:16 21.83929 64.44875 37759 ft 418 kts 297°
2026-04-29 00:17 21.86495 64.39275 37761 ft 418 kts 297°
2026-04-29 00:17 21.89065 64.33653 37762 ft 419 kts 296°
2026-04-29 00:18 21.91639 64.28007 37762 ft 419 kts 296°
2026-04-29 00:18 21.94191 64.22423 37773 ft 418 kts 296°
2026-04-29 00:19 21.96756 64.16805 37769 ft 418 kts 296°
2026-04-29 00:19 21.99314 64.11184 37770 ft 417 kts 296°
2026-04-29 00:20 22.01872 64.05570 37773 ft 417 kts 296°
2026-04-29 00:20 22.04422 63.99949 37766 ft 418 kts 296°
2026-04-29 00:21 22.06976 63.94326 37774 ft 418 kts 296°
2026-04-29 00:21 22.09526 63.88695 37769 ft 418 kts 296°
2026-04-29 00:22 22.12076 63.83065 37768 ft 418 kts 296°
2026-04-29 00:22 22.14629 63.77442 37774 ft 417 kts 296°
2026-04-29 00:23 22.17164 63.71821 37766 ft 416 kts 296°
2026-04-29 00:23 22.19700 63.66200 37766 ft 416 kts 296°
2026-04-29 00:24 22.22231 63.60582 37770 ft 416 kts 296°
2026-04-29 00:24 22.24762 63.54970 37764 ft 416 kts 296°
2026-04-29 00:25 22.27290 63.49355 37758 ft 416 kts 296°
2026-04-29 00:25 22.29808 63.43737 37759 ft 416 kts 296°
2026-04-29 00:26 22.32331 63.38118 37754 ft 416 kts 296°
2026-04-29 00:26 22.34854 63.32489 37762 ft 416 kts 295°
2026-04-29 00:27 22.37373 63.26856 37765 ft 417 kts 295°
2026-04-29 00:27 22.39899 63.21223 37768 ft 417 kts 295°
2026-04-29 00:28 22.42423 63.15588 37771 ft 417 kts 295°
2026-04-29 00:28 22.44918 63.09932 37766 ft 417 kts 294°
2026-04-29 00:29 22.47199 63.04178 37760 ft 417 kts 292°
2026-04-29 00:29 22.49380 62.98412 37760 ft 417 kts 292°
2026-04-29 00:30 22.51604 62.92621 37763 ft 417 kts 292°
2026-04-29 00:30 22.53866 62.86842 37768 ft 417 kts 292°
2026-04-29 00:31 22.56124 62.81057 37770 ft 417 kts 292°
2026-04-29 00:31 22.58372 62.75266 37769 ft 417 kts 292°
2026-04-29 00:32 22.60625 62.69469 37768 ft 417 kts 292°
2026-04-29 00:32 22.62867 62.63674 37772 ft 417 kts 292°
2026-04-29 00:33 22.65111 62.57885 37768 ft 417 kts 292°
2026-04-29 00:33 22.67352 62.52095 37766 ft 417 kts 291°
2026-04-29 00:34 22.69587 62.46301 37765 ft 417 kts 291°
2026-04-29 00:34 22.71819 62.40506 37760 ft 417 kts 291°
2026-04-29 00:35 22.74042 62.34751 37757 ft 417 kts 292°
2026-04-29 00:35 22.76285 62.28950 37759 ft 417 kts 292°
2026-04-29 00:36 22.78518 62.23142 37761 ft 418 kts 291°
2026-04-29 00:36 22.80750 62.17334 37759 ft 418 kts 291°
2026-04-29 00:37 22.82977 62.11513 37765 ft 418 kts 291°
2026-04-29 00:37 22.85203 62.05693 37765 ft 418 kts 291°
2026-04-29 00:38 22.87431 61.99872 37759 ft 418 kts 291°
2026-04-29 00:38 22.89657 61.94053 37758 ft 418 kts 291°
2026-04-29 00:39 22.91875 61.88232 37756 ft 418 kts 291°
2026-04-29 00:39 22.94095 61.82410 37756 ft 418 kts 291°
2026-04-29 00:40 22.96316 61.76579 37759 ft 418 kts 291°
2026-04-29 00:40 22.98532 61.70748 37760 ft 418 kts 291°
2026-04-29 00:41 23.00724 61.64955 37765 ft 418 kts 291°
2026-04-29 00:41 23.02934 61.59128 37760 ft 418 kts 291°
2026-04-29 00:42 23.05144 61.53295 37763 ft 418 kts 291°
2026-04-29 00:42 23.07346 61.47456 37762 ft 418 kts 291°
2026-04-29 00:43 23.09556 61.41622 37762 ft 418 kts 291°
2026-04-29 00:43 23.11762 61.35789 37761 ft 417 kts 291°
2026-04-29 00:44 23.13952 61.29951 37766 ft 417 kts 290°
2026-04-29 00:44 23.16141 61.24117 37763 ft 417 kts 290°
2026-04-29 00:45 23.18333 61.18284 37763 ft 417 kts 290°
2026-04-29 00:45 23.20525 61.12443 37763 ft 417 kts 290°
2026-04-29 00:46 23.22714 61.06600 37763 ft 417 kts 290°
2026-04-29 00:46 23.24888 61.00793 37758 ft 417 kts 290°
2026-04-29 00:47 23.27079 60.94948 37755 ft 417 kts 290°
2026-04-29 00:47 23.29266 60.89099 37754 ft 417 kts 290°
2026-04-29 00:48 23.31447 60.83244 37767 ft 417 kts 290°
2026-04-29 00:48 23.33614 60.77397 37769 ft 417 kts 290°
2026-04-29 00:49 23.35784 60.71551 37764 ft 416 kts 290°
2026-04-29 00:49 23.37953 60.65709 37762 ft 416 kts 290°
2026-04-29 00:50 23.40116 60.59864 37757 ft 416 kts 290°
2026-04-29 00:50 23.42252 60.54013 37755 ft 416 kts 289°
2026-04-29 00:51 23.44384 60.48154 37758 ft 416 kts 289°
2026-04-29 00:51 23.46525 60.42295 37750 ft 417 kts 289°
2026-04-29 00:52 23.48306 60.37423 37753 ft 417 kts 289°
2026-04-29 00:52 23.50444 60.31554 37768 ft 417 kts 289°
2026-04-29 00:53 23.52927 60.24736 37760 ft 416 kts 289°
2026-04-29 00:53 23.54709 60.19825 37758 ft 416 kts 289°
2026-04-29 00:54 23.56831 60.13969 37756 ft 415 kts 289°
2026-04-29 00:54 23.58941 60.08148 37751 ft 415 kts 289°
2026-04-29 00:55 23.61055 60.02287 37746 ft 415 kts 289°
2026-04-29 00:55 23.63170 59.96428 37744 ft 415 kts 289°
2026-04-29 00:56 23.65289 59.90570 37746 ft 415 kts 289°
2026-04-29 00:56 23.67407 59.84708 37753 ft 415 kts 289°
2026-04-29 00:57 23.69516 59.78844 37755 ft 415 kts 289°
2026-04-29 00:57 23.71617 59.72986 37756 ft 415 kts 289°
2026-04-29 00:58 23.73724 59.67128 37754 ft 415 kts 289°
2026-04-29 00:58 23.75826 59.61267 37755 ft 415 kts 289°
2026-04-29 00:59 23.77921 59.55399 37752 ft 415 kts 289°
2026-04-29 00:59 23.80018 59.49529 37752 ft 415 kts 289°
2026-04-29 01:00 23.82118 59.43656 37753 ft 415 kts 289°
2026-04-29 01:00 23.84201 59.37816 37769 ft 415 kts 288°
2026-04-29 01:01 23.86294 59.31939 37774 ft 415 kts 289°
2026-04-29 01:01 23.88376 59.26075 37767 ft 414 kts 288°
2026-04-29 01:02 23.90457 59.20215 37763 ft 413 kts 288°
2026-04-29 01:02 23.92533 59.14353 37761 ft 413 kts 288°
2026-04-29 01:03 23.94804 59.08571 37760 ft 415 kts 292°
2026-04-29 01:03 23.97317 59.02887 37767 ft 415 kts 293°
2026-04-29 01:04 23.99835 58.97198 37762 ft 416 kts 292°
2026-04-29 01:04 24.02299 58.91477 37774 ft 416 kts 292°
2026-04-29 01:05 24.04732 58.85744 37777 ft 415 kts 291°
2026-04-29 01:05 24.07158 58.80021 37779 ft 414 kts 292°
2026-04-29 01:06 24.09587 58.74309 37773 ft 414 kts 292°
2026-04-29 01:06 24.12008 58.68602 37771 ft 413 kts 292°
2026-04-29 01:07 24.14430 58.62896 37770 ft 413 kts 292°
2026-04-29 01:07 24.16852 58.57190 37772 ft 413 kts 292°
2026-04-29 01:08 24.19274 58.51485 37783 ft 413 kts 291°
2026-04-29 01:08 24.21670 58.45822 37780 ft 412 kts 291°
2026-04-29 01:09 24.24082 58.40127 37776 ft 412 kts 291°
2026-04-29 01:09 24.26487 58.34426 37775 ft 412 kts 291°
2026-04-29 01:10 24.28884 58.28732 37772 ft 411 kts 291°
2026-04-29 01:10 24.31279 58.23036 37768 ft 411 kts 291°
2026-04-29 01:11 24.33675 58.17339 37761 ft 411 kts 291°
2026-04-29 01:11 24.36065 58.11639 37765 ft 411 kts 291°
2026-04-29 01:12 24.38461 58.05939 37772 ft 411 kts 291°
2026-04-29 01:12 24.40852 58.00238 37774 ft 411 kts 291°
2026-04-29 01:13 24.43236 57.94536 37773 ft 411 kts 291°
2026-04-29 01:13 24.45619 57.88833 37768 ft 411 kts 291°
2026-04-29 01:14 24.48005 57.83121 37766 ft 412 kts 291°
2026-04-29 01:14 24.50385 57.77407 37768 ft 412 kts 290°
2026-04-29 01:15 24.52629 57.71630 37765 ft 411 kts 289°
2026-04-29 01:15 24.54778 57.65817 37765 ft 411 kts 289°
2026-04-29 01:16 24.56943 57.60010 37763 ft 411 kts 289°
2026-04-29 01:16 24.59124 57.54243 37764 ft 412 kts 289°
2026-04-29 01:17 24.61335 57.48438 37761 ft 412 kts 289°
2026-04-29 01:17 24.63542 57.42626 37766 ft 412 kts 289°
2026-04-29 01:18 24.65739 57.36802 37768 ft 413 kts 289°
2026-04-29 01:18 24.69025 57.28053 37768 ft 413 kts 289°
2026-04-29 01:19 24.71224 57.22219 37783 ft 413 kts 289°
2026-04-29 01:19 24.73418 57.16393 37783 ft 412 kts 289°
2026-04-29 01:20 24.75603 57.10566 37777 ft 412 kts 289°
2026-04-29 01:20 24.77778 57.04740 37775 ft 412 kts 289°
2026-04-29 01:21 24.79942 56.98951 37773 ft 412 kts 289°
2026-04-29 01:21 24.82120 56.93120 37775 ft 412 kts 289°
2026-04-29 01:22 24.84292 56.87284 37775 ft 412 kts 289°
2026-04-29 01:22 24.86468 56.81446 37787 ft 412 kts 289°
2026-04-29 01:23 24.88637 56.75610 37784 ft 412 kts 289°
2026-04-29 01:23 24.90803 56.69777 37789 ft 411 kts 288°
2026-04-29 01:24 24.92960 56.63946 37785 ft 411 kts 288°
2026-04-29 01:24 24.95119 56.58115 37782 ft 411 kts 289°
2026-04-29 01:25 24.96983 56.52198 37775 ft 407 kts 281°
2026-04-29 01:25 24.98419 56.46156 37771 ft 408 kts 282°
2026-04-29 01:26 24.99853 56.40157 37773 ft 407 kts 282°
2026-04-29 01:26 25.01294 56.34121 37783 ft 407 kts 282°
2026-04-29 01:27 25.02725 56.28088 37781 ft 406 kts 281°
2026-04-29 01:27 25.04149 56.22057 37823 ft 407 kts 281°
2026-04-29 01:28 25.05578 56.16024 37811 ft 406 kts 281°
2026-04-29 01:28 25.07001 56.09999 37808 ft 406 kts 281°
2026-04-29 01:29 25.08421 56.03976 37817 ft 406 kts 281°
2026-04-29 01:29 25.09837 55.97950 37827 ft 406 kts 281°
2026-04-29 01:30 25.11249 55.91926 37820 ft 406 kts 281°
2026-04-29 01:30 25.12655 55.85901 37823 ft 405 kts 281°
2026-04-29 01:31 25.14062 55.79875 37828 ft 405 kts 281°
2026-04-29 01:31 25.15471 55.73854 37823 ft 405 kts 281°
2026-04-29 01:32 25.16872 55.67842 37806 ft 404 kts 281°
2026-04-29 01:32 25.18269 55.61832 37795 ft 404 kts 281°
2026-04-29 01:33 25.19662 55.55825 37785 ft 404 kts 281°
2026-04-29 01:33 25.21049 55.49822 37774 ft 404 kts 281°
2026-04-29 01:34 25.22437 55.43814 37766 ft 404 kts 281°
2026-04-29 01:34 25.23817 55.37808 37765 ft 404 kts 281°
2026-04-29 01:35 25.25201 55.31801 37776 ft 403 kts 281°
2026-04-29 01:35 25.26578 55.25796 37801 ft 403 kts 281°
2026-04-29 01:36 25.27949 55.19803 37801 ft 402 kts 281°
2026-04-29 01:36 25.29318 55.13816 37801 ft 402 kts 281°
2026-04-29 01:37 25.30779 55.07850 37798 ft 402 kts 283°
2026-04-29 01:37 25.32398 55.01930 37797 ft 403 kts 283°
2026-04-29 01:38 25.34029 54.96010 37793 ft 403 kts 283°
2026-04-29 01:38 25.35628 54.90080 37790 ft 403 kts 283°
2026-04-29 01:39 25.37206 54.84138 37813 ft 403 kts 282°
2026-04-29 01:39 25.38784 54.78198 37813 ft 402 kts 282°
2026-04-29 01:40 25.40355 54.72269 37803 ft 402 kts 282°
2026-04-29 01:40 25.41928 54.66346 37799 ft 401 kts 282°
2026-04-29 01:41 25.43502 54.60424 37796 ft 402 kts 283°
2026-04-29 01:41 25.45196 54.54574 37796 ft 402 kts 284°
2026-04-29 01:42 25.46977 54.48705 37791 ft 402 kts 284°
2026-04-29 01:42 25.48744 54.42829 37794 ft 402 kts 284°
2026-04-29 01:43 25.50483 54.36942 37806 ft 402 kts 283°
2026-04-29 01:43 25.51919 54.32046 37807 ft 402 kts 283°
2026-04-29 01:44 25.53656 54.26122 37807 ft 402 kts 283°
2026-04-29 01:44 25.55366 54.20281 37793 ft 401 kts 283°
2026-04-29 01:45 25.57093 54.14397 37793 ft 401 kts 283°
2026-04-29 01:45 25.58815 54.08516 37792 ft 402 kts 283°
2026-04-29 01:46 25.60523 54.02628 37790 ft 401 kts 283°
2026-04-29 01:46 25.62202 53.96727 37794 ft 401 kts 283°
2026-04-29 01:47 25.63876 53.90830 37811 ft 401 kts 283°
2026-04-29 01:47 25.65545 53.84938 37803 ft 400 kts 283°
2026-04-29 01:48 25.67216 53.79053 37801 ft 400 kts 283°
2026-04-29 01:48 25.68888 53.73172 37797 ft 400 kts 283°
2026-04-29 01:49 25.70551 53.67290 37796 ft 400 kts 282°
2026-04-29 01:49 25.72201 53.61404 37794 ft 400 kts 282°
2026-04-29 01:50 25.73833 53.55559 37793 ft 400 kts 282°
2026-04-29 01:50 25.75483 53.49674 37805 ft 400 kts 282°
2026-04-29 01:51 25.77139 53.43793 37802 ft 399 kts 282°
2026-04-29 01:51 25.78791 53.37915 37801 ft 399 kts 282°
2026-04-29 01:52 25.80434 53.32041 37797 ft 398 kts 282°
2026-04-29 01:52 25.82073 53.26168 37797 ft 398 kts 282°
2026-04-29 01:53 25.83710 53.20294 37794 ft 398 kts 282°
2026-04-29 01:53 25.85810 53.14567 37795 ft 402 kts 289°
2026-04-29 01:54 25.88123 53.08908 37791 ft 402 kts 289°
2026-04-29 01:54 25.90426 53.03243 37792 ft 402 kts 289°
2026-04-29 01:55 25.92724 52.97574 37792 ft 402 kts 288°
2026-04-29 01:55 25.95012 52.91944 37796 ft 403 kts 289°
2026-04-29 01:56 25.97317 52.86276 37793 ft 403 kts 288°
2026-04-29 01:56 25.99611 52.80600 37796 ft 403 kts 288°
2026-04-29 01:57 26.01899 52.74917 37796 ft 403 kts 289°
2026-04-29 01:57 26.04332 52.69292 37808 ft 405 kts 291°
2026-04-29 01:58 26.06902 52.63724 37800 ft 405 kts 291°
2026-04-29 01:58 26.09456 52.58147 37798 ft 404 kts 290°
2026-04-29 01:59 26.11977 52.52555 37800 ft 404 kts 290°
2026-04-29 01:59 26.14476 52.47002 37796 ft 404 kts 290°
2026-04-29 02:00 26.16997 52.41400 37811 ft 405 kts 290°
2026-04-29 02:00 26.19517 52.35799 37814 ft 404 kts 290°
2026-04-29 02:01 26.22035 52.30205 37813 ft 404 kts 290°
2026-04-29 02:01 26.24497 52.24591 37816 ft 403 kts 289°
2026-04-29 02:02 26.26911 52.18959 37818 ft 403 kts 289°
2026-04-29 02:02 26.29328 52.13328 37815 ft 403 kts 289°
2026-04-29 02:03 26.31757 52.07702 37828 ft 403 kts 289°
2026-04-29 02:03 26.34186 52.02085 37832 ft 402 kts 289°
2026-04-29 02:04 26.36609 51.96476 37826 ft 401 kts 289°
2026-04-29 02:04 26.38720 51.90778 37822 ft 396 kts 285°
2026-04-29 02:05 26.40636 51.85061 37821 ft 396 kts 285°
2026-04-29 02:05 26.42570 51.79316 37818 ft 396 kts 285°
2026-04-29 02:06 26.44496 51.73568 37845 ft 395 kts 285°
2026-04-29 02:06 26.46419 51.67824 37838 ft 394 kts 285°
2026-04-29 02:07 26.48336 51.62103 37831 ft 393 kts 285°
2026-04-29 02:07 26.50239 51.56388 37820 ft 392 kts 285°
2026-04-29 02:08 26.52136 51.50677 37817 ft 392 kts 285°
2026-04-29 02:08 26.54036 51.44969 37816 ft 392 kts 285°
2026-04-29 02:09 26.55933 51.39257 37820 ft 392 kts 285°
2026-04-29 02:09 26.57822 51.33545 37847 ft 392 kts 285°
2026-04-29 02:10 26.59705 51.27844 37837 ft 391 kts 284°
2026-04-29 02:10 26.61571 51.22192 37835 ft 390 kts 285°
2026-04-29 02:11 26.63474 51.16469 37831 ft 390 kts 285°
2026-04-29 02:11 26.65341 51.10827 37832 ft 390 kts 285°
2026-04-29 02:12 26.67210 51.05141 37827 ft 389 kts 284°
2026-04-29 02:12 26.69077 50.99459 37858 ft 389 kts 284°
2026-04-29 02:13 26.70903 50.93775 37856 ft 388 kts 284°
2026-04-29 02:13 26.72709 50.88095 37846 ft 387 kts 284°
2026-04-29 02:14 26.74521 50.82428 37840 ft 387 kts 284°
2026-04-29 02:14 26.76327 50.76766 37848 ft 386 kts 284°
2026-04-29 02:15 26.78131 50.71107 37848 ft 386 kts 284°
2026-04-29 02:15 26.80099 50.65505 37846 ft 392 kts 292°
2026-04-29 02:16 26.83416 50.60541 37874 ft 401 kts 301°
2026-04-29 02:16 26.86945 50.55723 37873 ft 400 kts 301°
2026-04-29 02:17 26.90467 50.50900 37868 ft 400 kts 301°
2026-04-29 02:17 26.94081 50.46150 37867 ft 402 kts 304°
2026-04-29 02:18 26.97954 50.41597 37884 ft 404 kts 306°
2026-04-29 02:18 27.01868 50.37084 37884 ft 403 kts 305°
2026-04-29 02:19 27.05722 50.32544 37878 ft 401 kts 304°
2026-04-29 02:19 27.09485 50.27994 37875 ft 400 kts 304°
2026-04-29 02:20 27.13257 50.23406 37874 ft 400 kts 304°
2026-04-29 02:20 27.17232 50.19005 37884 ft 410 kts 314°
2026-04-29 02:21 27.21845 50.15214 37881 ft 410 kts 314°
2026-04-29 02:21 27.26446 50.11431 37879 ft 410 kts 314°
2026-04-29 02:22 27.31039 50.07640 37876 ft 409 kts 314°
2026-04-29 02:22 27.35629 50.03848 37873 ft 409 kts 314°
2026-04-29 02:23 27.40149 49.99988 37870 ft 407 kts 312°
2026-04-29 02:23 27.44580 49.96034 37868 ft 406 kts 312°
2026-04-29 02:24 27.49013 49.92083 37902 ft 407 kts 312°
2026-04-29 02:25 27.55694 49.86195 37892 ft 406 kts 312°
2026-04-29 02:25 27.60141 49.82283 37884 ft 405 kts 312°
2026-04-29 02:26 27.64572 49.78366 37878 ft 404 kts 311°
2026-04-29 02:26 27.68965 49.74477 37895 ft 404 kts 311°
2026-04-29 02:27 27.73390 49.70564 37886 ft 404 kts 311°
2026-04-29 02:27 27.77814 49.66641 37884 ft 404 kts 311°
2026-04-29 02:28 27.82229 49.62714 37880 ft 404 kts 311°
2026-04-29 02:28 27.86638 49.58784 37900 ft 404 kts 311°
2026-04-29 02:29 27.91043 49.54850 37892 ft 403 kts 311°
2026-04-29 02:29 27.95446 49.50910 37887 ft 404 kts 311°
2026-04-29 02:30 27.99842 49.46961 37884 ft 403 kts 311°
2026-04-29 02:30 28.04239 49.43012 37910 ft 403 kts 310°
2026-04-29 02:31 28.08605 49.39036 37902 ft 402 kts 310°
2026-04-29 02:31 28.12926 49.35076 37889 ft 402 kts 310°
2026-04-29 02:32 28.17279 49.31093 37883 ft 402 kts 310°
2026-04-29 02:32 28.21635 49.27108 37912 ft 402 kts 310°
2026-04-29 02:33 28.25991 49.23122 37899 ft 402 kts 310°
2026-04-29 02:33 28.30341 49.19137 37901 ft 402 kts 310°
2026-04-29 02:34 28.34687 49.15148 37895 ft 402 kts 309°
2026-04-29 02:34 28.39033 49.11157 37918 ft 402 kts 310°
2026-04-29 02:35 28.43696 49.07501 37901 ft 408 kts 314°
2026-04-29 02:35 28.47612 49.04509 37902 ft 408 kts 314°
2026-04-29 02:36 28.52310 49.00905 37922 ft 407 kts 314°
2026-04-29 02:36 28.56996 48.97295 37910 ft 407 kts 313°
2026-04-29 02:37 28.61683 48.93692 37901 ft 406 kts 314°
2026-04-29 02:37 28.66368 48.90092 37895 ft 406 kts 314°
2026-04-29 02:38 28.71046 48.86491 37919 ft 406 kts 313°
2026-04-29 02:38 28.75723 48.82881 37907 ft 406 kts 313°
2026-04-29 02:39 28.80397 48.79271 37902 ft 406 kts 313°
2026-04-29 02:39 28.85086 48.75675 37891 ft 406 kts 313°
2026-04-29 02:40 28.89751 48.72116 37925 ft 406 kts 313°
2026-04-29 02:40 28.94442 48.68521 37914 ft 406 kts 313°
2026-04-29 02:41 28.99130 48.64913 37893 ft 406 kts 313°
2026-04-29 02:41 29.03821 48.61304 37892 ft 406 kts 313°
2026-04-29 02:42 29.08510 48.57701 37887 ft 406 kts 313°
2026-04-29 02:42 29.13198 48.54087 37886 ft 406 kts 313°
2026-04-29 02:43 29.17883 48.50469 37888 ft 406 kts 313°
2026-04-29 02:43 29.22570 48.46856 37916 ft 406 kts 313°
2026-04-29 02:44 29.27254 48.43231 37901 ft 406 kts 313°
2026-04-29 02:44 29.31917 48.39610 37907 ft 409 kts 313°
2026-04-29 02:45 29.36631 48.35958 37907 ft 409 kts 313°
2026-04-29 02:45 29.41339 48.32313 37925 ft 408 kts 313°
2026-04-29 02:46 29.46107 48.28748 37918 ft 412 kts 316°
2026-04-29 02:46 29.51116 48.25466 37913 ft 416 kts 318°
2026-04-29 02:47 29.56188 48.22262 37912 ft 415 kts 317°
2026-04-29 02:47 29.61185 48.19030 37887 ft 410 kts 316°
2026-04-29 02:48 29.66127 48.15755 37882 ft 410 kts 316°
2026-04-29 02:48 29.71064 48.12470 37882 ft 410 kts 316°
2026-04-29 02:49 29.76008 48.09193 37921 ft 410 kts 316°
2026-04-29 02:49 29.80923 48.05947 37912 ft 410 kts 316°
2026-04-29 02:50 29.85854 48.02691 37901 ft 409 kts 316°
2026-04-29 02:50 29.90778 47.99416 37923 ft 409 kts 316°
2026-04-29 02:51 29.95707 47.96138 37917 ft 409 kts 316°
2026-04-29 02:51 30.00625 47.92839 37908 ft 404 kts 312°
2026-04-29 02:51 30.02803 47.90898 37903 ft 388 kts 303°
2026-04-29 02:52 30.04608 47.88662 37901 ft 378 kts 298°
2026-04-29 02:52 30.08034 47.84058 37928 ft 378 kts 298°
2026-04-29 02:53 30.11478 47.79463 37921 ft 378 kts 298°
2026-04-29 02:53 30.14929 47.74866 37915 ft 379 kts 298°
2026-04-29 02:54 30.18373 47.70263 37911 ft 379 kts 298°
2026-04-29 02:54 30.21814 47.65657 37927 ft 379 kts 298°
2026-04-29 02:55 30.25258 47.61043 37919 ft 379 kts 298°
2026-04-29 02:55 30.28701 47.56423 37916 ft 379 kts 298°
2026-04-29 02:56 30.32154 47.51793 37905 ft 380 kts 298°
2026-04-29 02:56 30.35607 47.47156 37930 ft 380 kts 298°
2026-04-29 02:57 30.39053 47.42504 37919 ft 381 kts 298°
2026-04-29 02:57 30.42508 47.37841 37909 ft 381 kts 298°
2026-04-29 02:58 30.45962 47.33178 37903 ft 381 kts 298°
2026-04-29 02:58 30.49397 47.28545 37929 ft 382 kts 298°
2026-04-29 02:59 30.52857 47.23872 37917 ft 382 kts 298°
2026-04-29 02:59 30.56333 47.19202 37912 ft 387 kts 301°
2026-04-29 02:59 30.58386 47.17096 37905 ft 399 kts 307°
2026-04-29 03:00 30.60549 47.15079 37903 ft 399 kts 307°
2026-04-29 03:00 30.64889 47.11048 37902 ft 399 kts 307°
2026-04-29 03:01 30.69221 47.07006 37900 ft 399 kts 307°
2026-04-29 03:01 30.73549 47.02956 37902 ft 399 kts 307°
2026-04-29 03:02 30.77878 46.98907 37924 ft 400 kts 307°
2026-04-29 03:02 30.82028 46.95023 37910 ft 400 kts 307°
2026-04-29 03:03 30.86331 46.90985 37904 ft 400 kts 307°
2026-04-29 03:03 30.90663 46.86914 37930 ft 400 kts 307°
2026-04-29 03:04 30.94993 46.82836 37914 ft 400 kts 307°
2026-04-29 03:04 30.99327 46.78758 37905 ft 401 kts 307°
2026-04-29 03:05 31.03660 46.74675 37903 ft 401 kts 307°
2026-04-29 03:05 31.07992 46.70585 37912 ft 401 kts 307°
2026-04-29 03:06 31.12324 46.66485 37895 ft 401 kts 307°
2026-04-29 03:06 31.16655 46.62382 37894 ft 401 kts 307°
2026-04-29 03:07 31.20992 46.58278 37922 ft 401 kts 307°
2026-04-29 03:07 31.25321 46.54159 37903 ft 402 kts 307°
2026-04-29 03:08 31.29663 46.50035 37891 ft 402 kts 307°
2026-04-29 03:08 31.34015 46.45913 37921 ft 403 kts 307°
2026-04-29 03:09 31.38362 46.41776 37904 ft 403 kts 307°
2026-04-29 03:09 31.42704 46.37622 37890 ft 403 kts 307°
2026-04-29 03:10 31.47055 46.33465 37879 ft 404 kts 307°
2026-04-29 03:10 31.51409 46.29306 37907 ft 404 kts 307°
2026-04-29 03:11 31.55763 46.25135 37899 ft 404 kts 307°
2026-04-29 03:11 31.60089 46.20987 37894 ft 405 kts 307°
2026-04-29 03:12 31.64449 46.16812 37909 ft 405 kts 307°
2026-04-29 03:12 31.68807 46.12621 37892 ft 405 kts 307°
2026-04-29 03:13 31.73163 46.08425 37886 ft 405 kts 307°
2026-04-29 03:13 31.77512 46.04217 37906 ft 404 kts 307°
2026-04-29 03:14 31.81810 45.99960 37896 ft 404 kts 306°
2026-04-29 03:14 31.86090 45.95678 37890 ft 404 kts 306°
2026-04-29 03:15 31.90381 45.91405 37891 ft 404 kts 306°
2026-04-29 03:15 31.94685 45.87135 37890 ft 405 kts 307°
2026-04-29 03:16 31.98992 45.82861 37884 ft 405 kts 307°
2026-04-29 03:16 32.03291 45.78570 37881 ft 405 kts 306°
2026-04-29 03:17 32.07589 45.74282 37888 ft 405 kts 307°
2026-04-29 03:17 32.11887 45.69985 37883 ft 405 kts 306°
2026-04-29 03:18 32.16181 45.65673 37883 ft 405 kts 306°
2026-04-29 03:18 32.20445 45.61397 37893 ft 405 kts 307°
2026-04-29 03:19 32.24746 45.57083 37886 ft 406 kts 307°
2026-04-29 03:19 32.29047 45.52764 37880 ft 406 kts 307°
2026-04-29 03:20 32.33349 45.48436 37901 ft 406 kts 307°
2026-04-29 03:20 32.37656 45.44106 37887 ft 407 kts 307°
2026-04-29 03:21 32.41967 45.39767 37876 ft 407 kts 307°
2026-04-29 03:21 32.46272 45.35420 37896 ft 407 kts 307°
2026-04-29 03:22 32.50579 45.31059 37884 ft 407 kts 307°
2026-04-29 03:22 32.54896 45.26707 37879 ft 411 kts 309°
2026-04-29 03:23 32.59707 45.22835 37903 ft 419 kts 313°
2026-04-29 03:23 32.64553 45.18990 37882 ft 419 kts 313°
2026-04-29 03:24 32.69397 45.15135 37874 ft 419 kts 313°
2026-04-29 03:24 32.74250 45.11282 37901 ft 420 kts 313°
2026-04-29 03:25 32.79113 45.07424 37888 ft 420 kts 313°
2026-04-29 03:25 32.83969 45.03553 37881 ft 421 kts 313°
2026-04-29 03:26 32.88795 44.99701 37915 ft 421 kts 313°
2026-04-29 03:26 32.93663 44.95807 37899 ft 422 kts 314°
2026-04-29 03:27 32.98537 44.91907 37879 ft 422 kts 314°
2026-04-29 03:27 33.03422 44.88001 37874 ft 423 kts 314°
2026-04-29 03:28 33.08307 44.84089 37875 ft 423 kts 314°
2026-04-29 03:28 33.12364 44.80826 37878 ft 423 kts 313°
2026-04-29 03:29 33.17247 44.76896 37886 ft 424 kts 314°
2026-04-29 03:29 33.19820 44.75092 37877 ft 437 kts 323°
2026-04-29 03:29 33.22730 44.73810 37875 ft 455 kts 334°
2026-04-29 03:29 33.25912 44.73185 37874 ft 474 kts 346°
2026-04-29 03:30 33.29229 44.73075 37876 ft 478 kts 348°
2026-04-29 03:30 33.35878 44.72898 37874 ft 478 kts 347°
2026-04-29 03:31 33.45858 44.72591 37874 ft 478 kts 347°
2026-04-29 03:31 33.52513 44.72373 37875 ft 479 kts 347°
2026-04-29 03:32 33.59176 44.72159 37898 ft 479 kts 348°
2026-04-29 03:32 33.65841 44.71951 37890 ft 479 kts 348°
2026-04-29 03:33 33.72509 44.71745 37887 ft 479 kts 348°
2026-04-29 03:33 33.79137 44.71537 37901 ft 480 kts 348°
2026-04-29 03:34 33.85811 44.71323 37897 ft 480 kts 348°
2026-04-29 03:34 33.92487 44.71111 37888 ft 480 kts 348°
2026-04-29 03:35 33.99162 44.70899 37901 ft 480 kts 348°
2026-04-29 03:35 34.05841 44.70689 37894 ft 480 kts 348°
2026-04-29 03:36 34.12517 44.70479 37918 ft 480 kts 349°
2026-04-29 03:36 34.19191 44.70269 37909 ft 480 kts 349°
2026-04-29 03:37 34.25860 44.70055 37900 ft 479 kts 349°
2026-04-29 03:37 34.32528 44.69833 37913 ft 479 kts 349°
2026-04-29 03:38 34.39192 44.69615 37907 ft 479 kts 349°
2026-04-29 03:38 34.45854 44.69390 37901 ft 479 kts 349°
2026-04-29 03:39 34.52314 44.68340 37922 ft 458 kts 334°
2026-04-29 03:39 34.58151 44.65678 37910 ft 450 kts 328°
2026-04-29 03:40 34.63971 44.62882 37903 ft 450 kts 328°
2026-04-29 03:40 34.69793 44.60084 37917 ft 450 kts 328°
2026-04-29 03:41 34.75612 44.57277 37925 ft 450 kts 329°